Location: Camp Creek
(33.9000°N, 111.8167°W)
Time: 13:20:25
(UTC-07:00)

Cosmos 1656 - Visible Passes

Search period start: 24 June 2016 00:00
Search period end: 04 July 2016 00:00
Orbit: 797 x 851 km, 71.1° (Epoch: 23 June)

Date Brightness Start Highest point End Pass type
(mag) Time Alt. Az. Time Alt. Az. Time Alt. Az.
24 Jun 6.3 21:07:47 10° WNW 21:10:06 13° W 21:12:23 10° WSW visible
25 Jun 6.2 20:46:37 10° WNW 20:49:47 15° W 20:52:55 10° SW visible
26 Jun 6.1 20:25:42 10° WNW 20:29:28 19° W 20:33:12 10° SW visible
27 Jun 6.0 20:04:55 10° NW 20:09:08 22° W 20:13:19 10° SSW visible
